Time,TemperatureF,DewpointF,PressureIn,WindDirection,WindDirectionDegrees,WindSpeedMPH,WindSpeedGustMPH,Humidity,HourlyPrecipIn,Conditions,Clouds,dailyrainin,SoftwareType,DateUTC
2013-07-18 00:02:00,86.0,70.0,-100.00,SSW,208,5.0,-999.0,58,-99.99,,,-99.99,,2013-07-18 04:02:00,
2013-07-18 00:12:00,86.0,70.0,-100.00,SSW,205,5.0,-999.0,59,-99.99,,,-99.99,,2013-07-18 04:12:00,
2013-07-18 00:22:00,86.0,71.0,-100.00,SSW,208,5.0,-999.0,59,-99.99,,,-99.99,,2013-07-18 04:22:00,
2013-07-18 00:43:00,86.0,71.0,-100.00,SW,220,5.0,-999.0,60,-99.99,,,-99.99,,2013-07-18 04:43:00,
2013-07-18 00:52:00,85.0,71.0,-100.00,SW,221,5.0,-999.0,60,-99.99,,,-99.99,,2013-07-18 04:52:00,
2013-07-18 01:11:00,85.0,71.0,-100.00,SW,223,5.0,-999.0,61,-99.99,,,-99.99,,2013-07-18 05:11:00,
2013-07-18 01:32:00,85.0,71.0,-100.00,SSW,210,4.0,-999.0,62,-99.99,,,-99.99,,2013-07-18 05:32:00,
2013-07-18 01:42:00,85.0,71.0,-100.00,SSW,210,4.0,-999.0,62,-99.99,,,-99.99,,2013-07-18 05:42:00,
2013-07-18 01:52:00,84.0,73.0,-100.00,SSW,197,5.0,-999.0,68,-99.99,,,-99.99,,2013-07-18 05:52:00,
2013-07-18 02:01:00,84.0,73.0,-100.00,SSW,197,5.0,-999.0,68,-99.99,,,-99.99,,2013-07-18 06:01:00,
2013-07-18 02:12:00,84.0,73.0,-100.00,SSW,197,5.0,-999.0,68,-99.99,,,-99.99,,2013-07-18 06:12:00,
2013-07-18 02:22:00,84.0,73.0,-100.00,SW,222,4.0,-999.0,70,-99.99,,,-99.99,,2013-07-18 06:22:00,
2013-07-18 02:32:00,84.0,73.0,-100.00,SW,222,4.0,-999.0,70,-99.99,,,-99.99,,2013-07-18 06:32:00,
2013-07-18 02:43:00,84.0,73.0,-100.00,SW,222,4.0,-999.0,70,-99.99,,,-99.99,,2013-07-18 06:43:00,
2013-07-18 03:01:00,84.0,73.0,-100.00,WSW,253,4.0,-999.0,69,-99.99,,,-99.99,,2013-07-18 07:01:00,
2013-07-18 03:12:00,84.0,73.0,-100.00,WSW,253,4.0,-999.0,69,-99.99,,,-99.99,,2013-07-18 07:12:00,
2013-07-18 03:22:00,83.0,72.0,-100.00,West,273,4.0,-999.0,68,-99.99,,,-99.99,,2013-07-18 07:22:00,
2013-07-18 03:32:00,83.0,72.0,-100.00,West,273,4.0,-999.0,68,-99.99,,,-99.99,,2013-07-18 07:32:00,
2013-07-18 03:42:00,83.0,72.0,-100.00,West,273,4.0,-999.0,68,-99.99,,,-99.99,,2013-07-18 07:42:00,
2013-07-18 03:52:00,83.0,72.0,-100.00,WNW,284,3.0,-999.0,69,-99.99,,,-99.99,,2013-07-18 07:52:00,
2013-07-18 04:01:00,83.0,72.0,-100.00,WNW,284,3.0,-999.0,69,-99.99,,,-99.99,,2013-07-18 08:01:00,
2013-07-18 04:11:00,83.0,72.0,-100.00,WNW,284,3.0,-999.0,69,-99.99,,,-99.99,,2013-07-18 08:11:00,
2013-07-18 04:21:00,82.0,72.0,-100.00,WSW,237,4.0,-999.0,71,-99.99,,,-99.99,,2013-07-18 08:21:00,
2013-07-18 04:32:00,82.0,72.0,-100.00,WSW,237,4.0,-999.0,71,-99.99,,,-99.99,,2013-07-18 08:32:00,
2013-07-18 04:42:00,82.0,72.0,-100.00,WSW,237,4.0,-999.0,71,-99.99,,,-99.99,,2013-07-18 08:42:00,
2013-07-18 04:52:00,82.0,74.0,-100.00,WSW,247,2.0,-999.0,75,-99.99,,,-99.99,,2013-07-18 08:52:00,
2013-07-18 05:01:00,82.0,74.0,-100.00,WSW,247,2.0,-999.0,75,-99.99,,,-99.99,,2013-07-18 09:01:00,
2013-07-18 05:11:00,82.0,74.0,-100.00,WSW,247,2.0,-999.0,75,-99.99,,,-99.99,,2013-07-18 09:11:00,
2013-07-18 05:21:00,82.0,74.0,-100.00,SW,233,2.0,-999.0,75,-99.99,,,-99.99,,2013-07-18 09:21:00,
2013-07-18 05:32:00,82.0,74.0,-100.00,SW,233,2.0,-999.0,75,-99.99,,,-99.99,,2013-07-18 09:32:00,
2013-07-18 05:42:00,82.0,74.0,-100.00,SW,233,2.0,-999.0,75,-99.99,,,-99.99,,2013-07-18 09:42:00,
2013-07-18 05:52:00,81.0,73.0,-100.00,WNW,282,5.0,-999.0,74,-99.99,,,-99.99,,2013-07-18 09:52:00,
2013-07-18 06:01:00,81.0,73.0,-100.00,WNW,282,5.0,-999.0,74,-99.99,,,-99.99,,2013-07-18 10:01:00,
2013-07-18 06:11:00,81.0,73.0,-100.00,WNW,282,5.0,-999.0,74,-99.99,,,-99.99,,2013-07-18 10:11:00,
2013-07-18 06:22:00,80.0,72.0,-100.00,WNW,289,4.0,-999.0,74,-99.99,,,-99.99,,2013-07-18 10:22:00,
2013-07-18 06:32:00,80.0,72.0,-100.00,WNW,289,4.0,-999.0,74,-99.99,,,-99.99,,2013-07-18 10:32:00,
2013-07-18 06:43:00,80.0,72.0,-100.00,WNW,289,4.0,-999.0,74,-99.99,,,-99.99,,2013-07-18 10:43:00,
2013-07-18 07:01:00,80.0,72.0,-100.00,NW,311,6.0,-999.0,75,-99.99,,,-99.99,,2013-07-18 11:01:00,
2013-07-18 07:11:00,80.0,72.0,-100.00,NW,311,6.0,-999.0,75,-99.99,,,-99.99,,2013-07-18 11:11:00,
2013-07-18 07:22:00,80.0,72.0,-100.00,NW,311,6.0,-999.0,75,-99.99,,,-99.99,,2013-07-18 11:22:00,
2013-07-18 07:32:00,79.0,72.0,-100.00,NW,320,8.0,-999.0,77,-99.99,,,-99.99,,2013-07-18 11:32:00,
2013-07-18 07:43:00,80.0,72.0,-100.00,NW,320,8.0,-999.0,77,-99.99,,,-99.99,,2013-07-18 11:43:00,
2013-07-18 07:52:00,80.0,72.0,-100.00,NW,321,7.0,-999.0,76,-99.99,,,-99.99,,2013-07-18 11:52:00,
2013-07-18 08:11:00,80.0,72.0,-100.00,NW,322,8.0,-999.0,74,-99.99,,,-99.99,,2013-07-18 12:11:00,
2013-07-18 08:22:00,81.0,72.0,-100.00,NW,322,6.0,-999.0,73,-99.99,,,-99.99,,2013-07-18 12:22:00,
2013-07-18 08:33:00,81.0,72.0,-100.00,NW,322,6.0,-999.0,73,-99.99,,,-99.99,,2013-07-18 12:33:00,
2013-07-18 08:42:00,82.0,72.0,-100.00,NW,324,5.0,-999.0,71,-99.99,,,-99.99,,2013-07-18 12:42:00,
2013-07-18 09:01:00,83.0,72.0,-100.00,NNW,329,5.0,-999.0,68,-99.99,,,-99.99,,2013-07-18 13:01:00,
2013-07-18 09:11:00,84.0,72.0,-100.00,NW,318,4.0,-999.0,67,-99.99,,,-99.99,,2013-07-18 13:11:00,
2013-07-18 09:33:00,84.0,72.0,-100.00,NNW,339,6.0,-999.0,65,-99.99,,,-99.99,,2013-07-18 13:33:00,
2013-07-18 09:43:00,85.0,72.0,-100.00,NNW,345,5.0,-999.0,63,-99.99,,,-99.99,,2013-07-18 13:43:00,
2013-07-18 10:12:00,86.0,72.0,-100.00,NNW,331,5.0,-999.0,63,-99.99,,,-99.99,,2013-07-18 14:12:00,
2013-07-18 10:22:00,86.0,72.0,-100.00,NNW,331,5.0,-999.0,63,-99.99,,,-99.99,,2013-07-18 14:22:00,
2013-07-18 10:33:00,86.0,72.0,-100.00,NNW,332,5.0,-999.0,62,-99.99,,,-99.99,,2013-07-18 14:33:00,
2013-07-18 10:43:00,87.0,72.0,-100.00,NE,47,6.0,-999.0,59,-99.99,,,-99.99,,2013-07-18 14:43:00,
2013-07-18 11:11:00,89.0,72.0,-100.00,NNE,29,4.0,-999.0,57,-99.99,,,-99.99,,2013-07-18 15:11:00,
2013-07-18 11:22:00,89.0,72.0,-100.00,NNE,29,4.0,-999.0,57,-99.99,,,-99.99,,2013-07-18 15:22:00,
2013-07-18 11:32:00,88.0,72.0,-100.00,NNW,331,4.0,-999.0,58,-99.99,,,-99.99,,2013-07-18 15:32:00,
2013-07-18 11:43:00,88.0,72.0,-100.00,NW,323,6.0,-999.0,59,-99.99,,,-99.99,,2013-07-18 15:43:00,
2013-07-18 12:01:00,89.0,73.0,-100.00,NNW,329,5.0,-999.0,57,-99.99,,,-99.99,,2013-07-18 16:01:00,
2013-07-18 12:42:00,90.0,72.0,-100.00,NNW,330,5.0,-999.0,55,-99.99,,,-99.99,,2013-07-18 16:42:00,
2013-07-18 12:52:00,90.0,71.0,-100.00,NW,321,7.0,-999.0,52,-99.99,,,-99.99,,2013-07-18 16:52:00,
2013-07-18 13:11:00,91.0,70.0,-100.00,WNW,282,5.0,-999.0,51,-99.99,,,-99.99,,2013-07-18 17:11:00,
2013-07-18 13:22:00,91.0,69.0,-100.00,NW,323,6.0,-999.0,48,-99.99,,,-99.99,,2013-07-18 17:22:00,
2013-07-18 13:33:00,91.0,69.0,-100.00,NW,323,6.0,-999.0,48,-99.99,,,-99.99,,2013-07-18 17:33:00,
2013-07-18 13:43:00,92.0,70.0,-100.00,WSW,252,5.0,-999.0,49,-99.99,,,-99.99,,2013-07-18 17:43:00,
2013-07-18 14:01:00,93.0,71.0,-100.00,NW,306,5.0,-999.0,49,-99.99,,,-99.99,,2013-07-18 18:01:00,
2013-07-18 14:22:00,91.0,72.0,-100.00,NW,310,5.0,-999.0,53,-99.99,,,-99.99,,2013-07-18 18:22:00,
2013-07-18 14:43:00,93.0,71.0,-100.00,NW,319,3.0,-999.0,49,-99.99,,,-99.99,,2013-07-18 18:43:00,
2013-07-18 14:52:00,93.0,70.0,-100.00,West,273,4.0,-999.0,48,-99.99,,,-99.99,,2013-07-18 18:52:00,
2013-07-18 15:11:00,93.0,70.0,-100.00,WSW,238,5.0,-999.0,46,-99.99,,,-99.99,,2013-07-18 19:11:00,
2013-07-18 15:22:00,93.0,70.0,-100.00,WSW,238,5.0,-999.0,46,-99.99,,,-99.99,,2013-07-18 19:22:00,
2013-07-18 15:32:00,94.0,70.0,-100.00,SW,228,6.0,-999.0,46,-99.99,,,-99.99,,2013-07-18 19:32:00,
2013-07-18 15:43:00,93.0,71.0,-100.00,WNW,300,4.0,-999.0,47,-99.99,,,-99.99,,2013-07-18 19:43:00,
2013-07-18 16:02:00,95.0,70.0,-100.00,SW,234,5.0,-999.0,44,-99.99,,,-99.99,,2013-07-18 20:02:00,
2013-07-18 16:43:00,93.0,73.0,-100.00,SSW,203,5.0,-999.0,51,-99.99,,,-99.99,,2013-07-18 20:43:00,
2013-07-18 16:52:00,93.0,73.0,-100.00,SSW,200,7.0,-999.0,51,-99.99,,,-99.99,,2013-07-18 20:52:00,
2013-07-18 17:01:00,93.0,73.0,-100.00,SSW,200,7.0,-999.0,51,-99.99,,,-99.99,,2013-07-18 21:01:00,
2013-07-18 17:11:00,93.0,73.0,-100.00,South,183,8.0,-999.0,51,-99.99,,,-99.99,,2013-07-18 21:11:00,
2013-07-18 17:22:00,92.0,73.0,-100.00,South,179,10.0,-999.0,52,-99.99,,,-99.99,,2013-07-18 21:22:00,
2013-07-18 17:32:00,92.0,73.0,-100.00,South,179,10.0,-999.0,52,-99.99,,,-99.99,,2013-07-18 21:32:00,
2013-07-18 17:43:00,90.0,74.0,-100.00,South,187,12.0,-999.0,57,-99.99,,,-99.99,,2013-07-18 21:43:00,
2013-07-18 17:52:00,90.0,73.0,-100.00,SSW,204,8.0,-999.0,57,-99.99,,,-99.99,,2013-07-18 21:52:00,
2013-07-18 18:11:00,91.0,73.0,-100.00,WSW,238,9.0,-999.0,55,-99.99,,,-99.99,,2013-07-18 22:11:00,
2013-07-18 18:22:00,90.0,73.0,-100.00,SSW,198,9.0,-999.0,57,-99.99,,,-99.99,,2013-07-18 22:22:00,
2013-07-18 18:43:00,91.0,73.0,-100.00,SSW,196,7.0,-999.0,56,-99.99,,,-99.99,,2013-07-18 22:43:00,
2013-07-18 19:11:00,92.0,74.0,-100.00,SSW,204,6.0,-999.0,55,-99.99,,,-99.99,,2013-07-18 23:11:00,
2013-07-18 19:32:00,92.0,74.0,-100.00,SSW,200,5.0,-999.0,54,-99.99,,,-99.99,,2013-07-18 23:32:00,
2013-07-18 19:42:00,92.0,74.0,-100.00,SSW,195,5.0,-999.0,55,-99.99,,,-99.99,,2013-07-18 23:42:00,
2013-07-18 19:52:00,92.0,74.0,-100.00,South,183,7.0,-999.0,56,-99.99,,,-99.99,,2013-07-18 23:52:00,
2013-07-18 20:11:00,91.0,75.0,-100.00,SW,221,7.0,-999.0,57,-99.99,,,-99.99,,2013-07-19 00:11:00,
2013-07-18 20:22:00,85.0,76.0,-100.00,SSE,167,8.0,-999.0,72,-99.99,,,-99.99,,2013-07-19 00:22:00,
2013-07-18 20:43:00,85.0,76.0,-100.00,SSE,156,5.0,-999.0,73,-99.99,,,-99.99,,2013-07-19 00:43:00,
2013-07-18 20:52:00,86.0,77.0,-100.00,SE,127,4.0,-999.0,73,-99.99,,,-99.99,,2013-07-19 00:52:00,
2013-07-18 21:11:00,86.0,75.0,-100.00,East,101,5.0,-999.0,70,-99.99,,,-99.99,,2013-07-19 01:11:00,
2013-07-18 21:22:00,86.0,75.0,-100.00,East,101,5.0,-999.0,70,-99.99,,,-99.99,,2013-07-19 01:22:00,
2013-07-18 21:32:00,85.0,74.0,-100.00,SE,130,4.0,-999.0,69,-99.99,,,-99.99,,2013-07-19 01:32:00,
2013-07-18 21:42:00,86.0,75.0,-100.00,ESE,120,3.0,-999.0,68,-99.99,,,-99.99,,2013-07-19 01:42:00,
2013-07-18 22:02:00,86.0,75.0,-100.00,SE,126,2.0,-999.0,70,-99.99,,,-99.99,,2013-07-19 02:02:00,
2013-07-18 22:22:00,88.0,77.0,-100.00,South,189,4.0,-999.0,69,-99.99,,,-99.99,,2013-07-19 02:22:00,
2013-07-18 22:32:00,88.0,77.0,-100.00,South,189,4.0,-999.0,69,-99.99,,,-99.99,,2013-07-19 02:32:00,
2013-07-18 22:42:00,87.0,77.0,-100.00,SSW,204,6.0,-999.0,69,-99.99,,,-99.99,,2013-07-19 02:42:00,
2013-07-18 23:01:00,88.0,76.0,-100.00,SSW,194,6.0,-999.0,68,-99.99,,,-99.99,,2013-07-19 03:01:00,
2013-07-18 23:32:00,88.0,77.0,-100.00,SSW,197,3.0,-999.0,68,-99.99,,,-99.99,,2013-07-19 03:32:00,
2013-07-18 23:52:00,87.0,76.0,-100.00,SSW,203,4.0,-999.0,68,-99.99,,,-99.99,,2013-07-19 03:52:00,